DW3354 Weather Reports


Display with metric or nautical units.
time (UTC)temp
F
wind
direction
speed
MPH
gust
MPH
rain 1hr
in
rain 24hr
in
rain mn
in
humidity
%
barometer
mb
20260906032001 69 292 0.0 1.0 0.00 0.00 0.00 66 1018.0
20260906031500 69 274 1.0 3.0 0.00 0.00 0.00 66 1017.9
20260906031000 69 297 2.0 2.0 0.00 0.00 0.00 66 1017.9
20260906030501 69 267 3.0 3.0 0.00 0.00 0.00 67 1017.8
20260906030001 70 301 2.0 3.0 0.00 0.00 0.00 68 1017.6
20260906025500 70 261 1.0 3.0 0.00 0.00 0.00 68 1017.6
20260906025001 70 291 1.0 1.0 0.00 0.00 0.00 69 1017.6
20260906024501 70 291 1.0 2.0 0.00 0.00 0.00 68 1017.6
20260906024001 70 295 2.0 2.0 0.00 0.00 0.00 68 1017.5
20260906023501 70 271 2.0 5.0 0.00 0.00 0.00 69 1017.4
20260906023000 70 265 3.0 3.0 0.00 0.00 0.00 69 1017.3
20260906022501 70 273 0.0 2.0 0.00 0.00 0.00 68 1017.4
20260906022001 71 270 1.0 2.0 0.00 0.00 0.00 68 1017.3
20260906021501 71 300 1.0 2.0 0.00 0.00 0.00 67 1017.2
20260906021001 72 292 2.0 3.0 0.00 0.00 0.00 66 1017.2
20260906020501 72 284 2.0 3.0 0.00 0.00 0.00 65 1017.1
20260906020001 72 312 1.0 3.0 0.00 0.00 0.00 65 1017.0
20260906015500 72 307 2.0 3.0 0.00 0.00 0.00 65 1016.9
20260906015000 72 277 2.0 2.0 0.00 0.00 0.00 65 1016.7
20260906014501 72 280 1.0 2.0 0.00 0.00 0.00 64 1016.7
20260906014001 72 290 1.0 2.0 0.00 0.00 0.00 63 1016.7
20260906013500 73 291 2.0 2.0 0.00 0.00 0.00 64 1016.7
20260906013000 73 278 2.0 3.0 0.00 0.00 0.00 63 1016.7
20260906012500 73 289 1.0 3.0 0.00 0.00 0.00 62 1016.6
20260906012000 74 327 0.0 3.0 0.00 0.00 0.00 62 1016.6
20260906011501 74 311 4.0 5.0 0.00 0.00 0.00 62 1016.6
20260906011001 74 288 3.0 5.0 0.00 0.00 0.00 62 1016.5
20260906010501 74 275 3.0 6.0 0.00 0.00 0.00 61 1016.4
20260906010000 74 290 3.0 5.0 0.00 0.00 0.00 62 1016.4
20260906005500 74 294 3.0 5.0 0.00 0.00 0.00 61 1016.5
20260906005001 75 286 4.0 6.0 0.00 0.00 0.00 61 1016.5
20260906004501 75 290 3.0 7.0 0.00 0.00 0.00 61 1016.6
20260906004001 75 284 5.0 6.0 0.00 0.00 0.00 61 1016.5
20260906003501 75 302 3.0 9.0 0.00 0.00 0.00 61 1016.5
20260906003000 75 303 2.0 9.0 0.00 0.00 0.00 61 1016.3
20260906002501 75 328 3.0 6.0 0.00 0.00 0.00 61 1016.3
20260906002000 74 324 4.0 10.0 0.00 0.00 0.00 61 1016.1
20260906001501 74 340 4.0 5.0 0.00 0.00 0.00 61 1016.0
20260906001001 74 352 3.0 6.0 0.00 0.00 0.00 62 1016.0
20260906000500 73 341 3.0 6.0 0.00 0.00 0.00 62 1015.9
20260906000001 73 305 3.0 7.0 0.00 0.00 0.00 63 1016.0
20260905235500 72 353 2.0 5.0 0.00 0.00 0.00 64 1015.8
20260905235001 72 322 3.0 6.0 0.00 0.00 0.00 65 1015.9
20260905234501 71 339 3.0 6.0 0.00 0.00 0.00 65 1015.8
20260905234001 71 340 1.0 6.0 0.00 0.00 0.00 64 1015.8
20260905233500 71 351 3.0 5.0 0.00 0.00 0.00 64 1015.8
20260905233000 72 3 3.0 6.0 0.00 0.00 0.00 64 1015.8
20260905232501 72 351 3.0 5.0 0.00 0.00 0.00 63 1015.8
20260905232001 72 341 2.0 5.0 0.00 0.00 0.00 63 1015.8
20260905231501 73 353 2.0 5.0 0.00 0.00 0.00 62 1015.7
20260905231001 73 1 3.0 5.0 0.00 0.00 0.00 61 1015.6
20260905230501 74 353 3.0 5.0 0.00 0.00 0.00 60 1015.5
20260905230000 74 325 3.0 5.0 0.00 0.00 0.00 60 1015.4
20260905225501 75 322 3.0 3.0 0.00 0.00 0.00 59 1015.4
20260905225001 75 357 2.0 5.0 0.00 0.00 0.00 59 1015.5
20260905224501 75 341 3.0 5.0 0.00 0.00 0.00 58 1015.5
20260905224000 76 294 3.0 6.0 0.00 0.00 0.00 57 1015.5
20260905223500 76 312 3.0 6.0 0.00 0.00 0.00 57 1015.5
20260905223000 76 336 2.0 6.0 0.00 0.00 0.00 56 1015.5
20260905222501 76 10 4.0 6.0 0.00 0.00 0.00 56 1015.6
20260905222001 75 302 4.0 7.0 0.00 0.00 0.00 56 1015.5
20260905221502 76 318 2.0 8.0 0.00 0.00 0.00 56 1015.5
20260905221000 76 303 6.0 7.0 0.00 0.00 0.00 56 1015.4
20260905220501 76 283 5.0 8.0 0.00 0.00 0.00 56 1015.5
20260905220001 76 307 3.0 6.0 0.00 0.00 0.00 55 1015.5
20260905215501 76 338 3.0 9.0 0.00 0.00 0.00 55 1015.4
20260905215001 76 4 2.0 8.0 0.00 0.00 0.00 55 1015.4
20260905214501 76 311 4.0 6.0 0.00 0.00 0.00 55 1015.4
20260905214001 76 300 4.0 7.0 0.00 0.00 0.00 55 1015.3
20260905213501 76 314 3.0 6.0 0.00 0.00 0.00 55 1015.2
20260905213000 76 316 2.0 2.0 0.00 0.00 0.00 54 1015.0
20260905212501 76 291 3.0 3.0 0.00 0.00 0.00 54 1014.9
20260905212001 77 291 3.0 5.0 0.00 0.00 0.00 53 1014.9
20260905211501 77 293 4.0 6.0 0.00 0.00 0.00 53 1014.8
20260905211001 77 276 3.0 7.0 0.00 0.00 0.00 52 1014.8
20260905210501 77 7 3.0 6.0 0.00 0.00 0.00 52 1014.7
20260905210001 77 321 3.0 7.0 0.00 0.00 0.00 52 1014.7
20260905205501 75 351 5.0 7.0 0.00 0.00 0.00 54 1014.7
20260905205001 74 345 2.0 3.0 0.00 0.00 0.00 57 1014.7
20260905204500 75 325 1.0 2.0 0.00 0.00 0.00 56 1014.7
20260905204001 76 325 1.0 1.0 0.00 0.00 0.00 55 1014.8
20260905203501 76 325 1.0 2.0 0.00 0.00 0.00 54 1014.7
20260905203001 76 328 1.0 1.0 0.00 0.00 0.00 54 1014.7
20260905202501 75 283 1.0 2.0 0.00 0.00 0.00 55 1014.5
20260905202001 75 282 1.0 1.0 0.00 0.00 0.00 57 1014.4
20260905201501 74 293 2.0 2.0 0.00 0.00 0.00 59 1014.4
20260905201001 75 341 0.0 0.0 0.00 0.00 0.00 61 1014.3
20260905200501 75 341 0.0 1.0 0.00 0.00 0.00 61 1014.3
20260905200000 75 341 0.0 1.0 0.00 0.00 0.00 60 1014.2
20260905195501 75 237 0.0 1.0 0.00 0.00 0.00 59 1014.0
20260905195001 74 22 0.0 0.0 0.00 0.00 0.00 62 1014.0
20260905194501 75 18 0.0 0.0 0.00 0.00 0.00 63 1014.0
20260905194000 75 18 0.0 0.0 0.00 0.00 0.00 62 1014.0
20260905193500 75 18 0.0 0.0 0.00 0.00 0.00 61 1013.9
20260905193000 75 18 0.0 0.0 0.00 0.00 0.00 62 1013.9
20260905192501 75 17 0.0 0.0 0.00 0.00 0.00 62 1013.9
20260905192001 76 18 0.0 0.0 0.00 0.00 0.00 61 1013.9
20260905191501 76 18 1.0 1.0 0.00 0.00 0.00 61 1013.8
20260905191001 76 18 0.0 0.0 0.00 0.00 0.00 60 1013.8
20260905190500 76 18 0.0 0.0 0.00 0.00 0.00 61 1013.9
20260905190000 76 18 0.0 1.0 0.00 0.00 0.00 61 1013.9
20260905185501 77 18 0.0 1.0 0.00 0.00 0.00 61 1014.0
20260905185000 77 18 0.0 1.0 0.00 0.00 0.00 60 1014.0
20260905184501 77 342 1.0 1.0 0.00 0.00 0.00 59 1013.9
20260905184001 77 342 0.0 0.0 0.00 0.00 0.00 59 1013.9
20260905183501 77 342 0.0 0.0 0.00 0.00 0.00 58 1013.9
20260905183001 77 342 0.0 0.0 0.00 0.00 0.00 58 1013.8
20260905182501 77 342 0.0 1.0 0.00 0.00 0.00 58 1013.8
20260905182000 78 342 0.0 0.0 0.00 0.00 0.00 58 1013.8
20260905181501 78 342 0.0 0.0 0.00 0.00 0.00 58 1013.7
20260905181001 78 342 0.0 1.0 0.00 0.00 0.00 57 1013.6
20260905180501 79 342 0.0 1.0 0.00 0.00 0.00 56 1013.6
20260905180000 79 342 0.0 0.0 0.00 0.00 0.00 56 1013.5
20260905175501 79 342 0.0 0.0 0.00 0.00 0.00 56 1013.5
20260905175001 79 342 0.0 0.0 0.00 0.00 0.00 55 1013.5
20260905174501 79 342 0.0 1.0 0.00 0.00 0.00 54 1013.4
20260905174001 80 342 0.0 0.0 0.00 0.00 0.00 53 1013.4
20260905173501 80 342 0.0 0.0 0.00 0.00 0.00 53 1013.4
20260905173001 81 342 0.0 0.0 0.00 0.00 0.00 52 1013.3
20260905172500 81 342 0.0 0.0 0.00 0.00 0.00 52 1013.3
20260905172001 81 342 0.0 0.0 0.00 0.00 0.00 51 1013.2
20260905171501 82 342 0.0 0.0 0.00 0.00 0.00 51 1013.2
20260905171001 82 343 0.0 0.0 0.00 0.00 0.00 50 1013.1
20260905170500 83 343 0.0 0.0 0.00 0.00 0.00 48 1013.1
20260905170001 83 343 0.0 0.0 0.00 0.00 0.00 48 1013.0
20260905165501 84 343 0.0 0.0 0.00 0.00 0.00 47 1013.1
20260905165001 85 343 0.0 0.0 0.00 0.00 0.00 46 1013.0
20260905164501 86 343 0.0 0.0 0.00 0.00 0.00 45 1012.9
20260905164001 87 343 0.0 0.0 0.00 0.00 0.00 45 1013.0
20260905163501 88 343 1.0 1.0 0.00 0.00 0.00 42 1013.0
20260905163001 90 343 0.0 1.0 0.00 0.00 0.00 40 1012.9
20260905162501 91 344 1.0 3.0 0.00 0.00 0.00 38 1012.9
20260905162001 91 292 2.0 5.0 0.00 0.00 0.00 37 1013.0
20260905161501 92 335 3.0 5.0 0.00 0.00 0.00 37 1013.0
20260905161000 93 283 1.0 1.0 0.00 0.00 0.00 35 1013.0
20260905160500 94 281 3.0 3.0 0.00 0.00 0.00 34 1013.0
20260905160001 95 301 3.0 5.0 0.00 0.00 0.00 34 1013.0
20260905155500 95 250 0.0 5.0 0.00 0.00 0.00 34 1013.1
20260905155000 95 230 1.0 3.0 0.00 0.00 0.00 36 1013.0
20260905154501 96 265 2.0 3.0 0.00 0.00 0.00 36 1013.0
20260905154001 96 258 0.0 1.0 0.00 0.00 0.00 35 1013.1
20260905153500 96 274 0.0 1.0 0.00 0.00 0.00 35 1013.1
20260905153001 97 234 2.0 2.0 0.00 0.00 0.00 33 1013.1
20260905152501 97 254 0.0 2.0 0.00 0.00 0.00 32 1013.1
20260905152001 97 286 2.0 6.0 0.00 0.00 0.00 33 1013.1
20260905151501 97 278 1.0 5.0 0.00 0.00 0.00 33 1013.1
20260905151000 97 282 2.0 2.0 0.00 0.00 0.00 33 1013.1
20260905150501 97 262 2.0 6.0 0.00 0.00 0.00 31 1013.1
20260905150001 97 287 5.0 9.0 0.00 0.00 0.00 33 1013.2
20260905145501 98 282 4.0 7.0 0.00 0.00 0.00 31 1013.3
20260905145000 98 296 2.0 7.0 0.00 0.00 0.00 31 1013.2
20260905144501 98 302 2.0 3.0 0.00 0.00 0.00 31 1013.3
20260905144001 98 292 9.0 10.0 0.00 0.00 0.00 31 1013.3
20260905143501 98 236 1.0 1.0 0.00 0.00 0.00 32 1013.3
20260905143001 98 128 1.0 2.0 0.00 0.00 0.00 31 1013.4
20260905142501 98 254 3.0 5.0 0.00 0.00 0.00 32 1013.5
20260905142001 98 239 1.0 6.0 0.00 0.00 0.00 31 1013.5
20260905141501 98 321 3.0 5.0 0.00 0.00 0.00 33 1013.5
20260905141001 98 228 2.0 6.0 0.00 0.00 0.00 31 1013.6
20260905140501 98 200 0.0 3.0 0.00 0.00 0.00 31 1013.6
20260905140001 98 167 4.0 7.0 0.00 0.00 0.00 31 1013.8
20260905135501 98 288 4.0 13.0 0.00 0.00 0.00 32 1013.9
20260905135001 99 255 9.0 15.0 0.00 0.00 0.00 31 1013.9
20260905134501 99 295 4.0 7.0 0.00 0.00 0.00 31 1013.8
20260905134001 98 300 2.0 6.0 0.00 0.00 0.00 32 1013.8
20260905133501 98 309 2.0 3.0 0.00 0.00 0.00 31 1014.0
20260905133001 98 281 5.0 7.0 0.00 0.00 0.00 32 1013.9
20260905132501 98 360 5.0 8.0 0.00 0.00 0.00 31 1014.0
20260905132001 98 303 3.0 7.0 0.00 0.00 0.00 31 1014.1
20260905131500 98 268 2.0 8.0 0.00 0.00 0.00 31 1014.1
20260905131001 98 220 5.0 7.0 0.00 0.00 0.00 31 1014.1
20260905130501 98 170 2.0 5.0 0.00 0.00 0.00 31 1014.1
20260905130001 98 322 4.0 6.0 0.00 0.00 0.00 31 1014.3
20260905125500 98 247 1.0 5.0 0.00 0.00 0.00 32 1014.3
20260905125001 98 264 0.0 5.0 0.00 0.00 0.00 30 1014.3
20260905124501 98 268 2.0 7.0 0.00 0.00 0.00 32 1014.3
20260905124001 97 226 4.0 8.0 0.00 0.00 0.00 31 1014.4
20260905123500 97 237 3.0 5.0 0.00 0.00 0.00 32 1014.5
20260905123001 98 247 1.0 7.0 0.00 0.00 0.00 31 1014.5
20260905122501 98 289 3.0 6.0 0.00 0.00 0.00 32 1014.5
20260905122000 97 1 2.0 6.0 0.00 0.00 0.00 33 1014.5
20260905121501 97 277 3.0 7.0 0.00 0.00 0.00 32 1014.7
20260905121001 97 276 3.0 6.0 0.00 0.00 0.00 32 1014.8
20260905120501 97 276 5.0 7.0 0.00 0.00 0.00 33 1014.9
20260905120001 97 294 5.0 8.0 0.00 0.00 0.00 34 1014.8
20260905115500 96 50 5.0 6.0 0.00 0.00 0.00 33 1015.0
20260905115001 96 299 6.0 10.0 0.00 0.00 0.00 33 1015.1
20260905114501 96 298 3.0 10.0 0.00 0.00 0.00 32 1015.2
20260905114000 96 279 3.0 8.0 0.00 0.00 0.00 33 1015.2
20260905113501 96 34 1.0 2.0 0.00 0.00 0.00 35 1015.3
20260905113001 95 151 3.0 5.0 0.00 0.00 0.00 34 1015.4
20260905112501 96 175 3.0 5.0 0.00 0.00 0.00 34 1015.4
20260905112001 95 342 1.0 7.0 0.00 0.00 0.00 36 1015.4
20260905111501 95 337 3.0 5.0 0.00 0.00 0.00 35 1015.5
20260905111001 95 222 1.0 6.0 0.00 0.00 0.00 37 1015.5
20260905110501 94 251 1.0 3.0 0.00 0.00 0.00 37 1015.6
20260905110001 94 317 1.0 5.0 0.00 0.00 0.00 36 1015.7
20260905105501 94 203 1.0 2.0 0.00 0.00 0.00 37 1015.7
20260905105001 93 256 3.0 3.0 0.00 0.00 0.00 39 1015.8
20260905104501 93 125 3.0 6.0 0.00 0.00 0.00 38 1015.8
20260905104001 93 194 3.0 5.0 0.00 0.00 0.00 38 1015.8
20260905103500 93 168 2.0 5.0 0.00 0.00 0.00 37 1016.0
20260905103000 92 320 3.0 6.0 0.00 0.00 0.00 38 1016.0
20260905102501 92 309 2.0 5.0 0.00 0.00 0.00 38 1016.0
20260905102001 92 336 3.0 11.0 0.00 0.00 0.00 37 1016.0
20260905101501 92 292 3.0 6.0 0.00 0.00 0.00 38 1016.1
20260905101001 92 145 3.0 5.0 0.00 0.00 0.00 38 1016.0
20260905100501 92 2 1.0 5.0 0.00 0.00 0.00 40 1016.1
20260905100001 91 146 1.0 5.0 0.00 0.00 0.00 39 1016.1
20260905095501 91 340 2.0 6.0 0.00 0.00 0.00 40 1016.2
20260905095000 91 19 1.0 3.0 0.00 0.00 0.00 41 1016.3
20260905094501 91 34 1.0 6.0 0.00 0.00 0.00 43 1016.3
20260905094001 90 172 2.0 6.0 0.00 0.00 0.00 40 1016.4
20260905093501 90 306 4.0 7.0 0.00 0.00 0.00 42 1016.4
20260905093001 89 302 4.0 5.0 0.00 0.00 0.00 44 1016.4
20260905092500 89 238 1.0 3.0 0.00 0.00 0.00 43 1016.5
20260905092001 88 206 2.0 6.0 0.00 0.00 0.00 43 1016.5
20260905091501 89 327 3.0 8.0 0.00 0.00 0.00 42 1016.5
20260905091000 88 210 1.0 6.0 0.00 0.00 0.00 45 1016.5
20260905090500 87 269 1.0 5.0 0.00 0.00 0.00 46 1016.6
20260905090000 86 340 3.0 6.0 0.00 0.00 0.00 45 1016.6
20260905085501 86 216 1.0 3.0 0.00 0.00 0.00 46 1016.7
20260905085001 85 248 5.0 6.0 0.00 0.00 0.00 46 1016.7
20260905084501 85 290 2.0 5.0 0.00 0.00 0.00 46 1016.7
20260905084001 85 1 5.0 7.0 0.00 0.00 0.00 46 1016.8
20260905083501 85 325 3.0 7.0 0.00 0.00 0.00 48 1016.8
20260905083001 85 310 4.0 6.0 0.00 0.00 0.00 48 1016.8
20260905082501 85 327 0.0 1.0 0.00 0.00 0.00 46 1016.8
20260905082001 84 347 1.0 3.0 0.00 0.00 0.00 47 1016.8
20260905081501 83 309 1.0 3.0 0.00 0.00 0.00 49 1016.8
20260905081001 82 326 2.0 5.0 0.00 0.00 0.00 48 1016.9
20260905080501 82 308 1.0 5.0 0.00 0.00 0.00 47 1016.9
20260905080001 81 153 3.0 3.0 0.00 0.00 0.00 49 1016.9
20260905075501 80 168 1.0 2.0 0.00 0.00 0.00 50 1017.0
20260905075001 79 132 1.0 3.0 0.00 0.00 0.00 51 1017.0
20260905074501 79 137 1.0 3.0 0.00 0.00 0.00 51 1017.0
20260905074000 79 155 2.0 2.0 0.00 0.00 0.00 52 1017.1
20260905073501 78 236 0.0 2.0 0.00 0.00 0.00 53 1017.0
20260905073001 78 170 0.0 2.0 0.00 0.00 0.00 54 1017.0
20260905072501 77 321 1.0 3.0 0.00 0.00 0.00 56 1017.0
20260905072001 76 310 1.0 2.0 0.00 0.00 0.00 56 1017.0
20260905071500 75 167 2.0 3.0 0.00 0.00 0.00 59 1017.1
20260905071001 74 192 0.0 3.0 0.00 0.00 0.00 61 1017.0
20260905070501 74 208 0.0 1.0 0.00 0.00 0.00 61 1017.0
20260905070001 73 312 2.0 3.0 0.00 0.00 0.00 62 1017.1
20260905065500 72 260 0.0 2.0 0.00 0.00 0.00 64 1017.1
20260905065001 71 257 1.0 2.0 0.00 0.00 0.00 67 1017.1
20260905064501 70 263 1.0 1.0 0.00 0.00 0.00 67 1017.0
20260905064001 69 309 0.0 2.0 0.00 0.00 0.00 69 1017.0
20260905063501 69 172 1.0 2.0 0.00 0.00 0.00 69 1017.1
20260905063001 68 259 1.0 2.0 0.00 0.00 0.00 71 1017.0
20260905062501 67 89 0.0 1.0 0.00 0.00 0.00 71 1017.1
20260905062001 67 338 1.0 3.0 0.00 0.00 0.00 72 1017.1
20260905061501 67 327 1.0 3.0 0.00 0.00 0.00 72 1017.1
20260905061000 66 286 2.0 3.0 0.00 0.00 0.00 73 1017.2
20260905060501 66 357 0.0 1.0 0.00 0.00 0.00 73 1017.3
20260905060000 66 292 3.0 3.0 0.00 0.00 0.00 73 1017.2
20260905055501 66 337 1.0 3.0 0.00 0.00 0.00 74 1017.1
20260905055001 66 346 3.0 3.0 0.00 0.00 0.00 74 1017.1
20260905054501 65 349 2.0 3.0 0.00 0.00 0.00 75 1017.1
20260905054001 65 345 1.0 3.0 0.00 0.00 0.00 76 1017.1
20260905053501 64 357 3.0 5.0 0.00 0.00 0.00 77 1017.2
20260905053001 63 358 1.0 3.0 0.00 0.00 0.00 79 1017.2
20260905052500 63 350 2.0 3.0 0.00 0.00 0.00 80 1017.2
20260905052001 62 325 3.0 5.0 0.00 0.00 0.00 80 1017.2
20260905051501 62 341 1.0 2.0 0.00 0.00 0.00 81 1017.2
20260905051000 61 292 1.0 2.0 0.00 0.00 0.00 81 1017.2
20260905050501 61 281 3.0 3.0 0.00 0.00 0.00 81 1017.2
20260905050001 61 314 1.0 1.0 0.00 0.00 0.00 82 1017.1
20260905045500 61 305 1.0 2.0 0.00 0.00 0.00 82 1017.1
20260905045001 61 307 2.0 2.0 0.00 0.00 0.00 82 1017.1
20260905044502 61 323 1.0 2.0 0.00 0.00 0.00 82 1017.2
20260905044001 60 322 0.0 1.0 0.00 0.00 0.00 82 1017.3
20260905043501 60 318 1.0 2.0 0.00 0.00 0.00 83 1017.2
20260905043001 60 299 0.0 2.0 0.00 0.00 0.00 83 1017.2
20260905042500 60 311 1.0 2.0 0.00 0.00 0.00 83 1017.1
20260905042001 60 339 0.0 1.0 0.00 0.00 0.00 83 1017.1
20260905041501 60 339 0.0 1.0 0.00 0.00 0.00 83 1017.0
20260905041001 60 338 1.0 2.0 0.00 0.00 0.00 83 1016.9
20260905040501 60 314 1.0 2.0 0.00 0.00 0.00 83 1016.8
20260905040001 60 349 1.0 2.0 0.00 0.00 0.00 83 1016.8
20260905035501 60 351 1.0 2.0 0.00 0.00 0.00 83 1016.8
20260905035000 60 337 0.0 3.0 0.00 0.00 0.00 82 1016.7
20260905034500 60 8 1.0 3.0 0.00 0.00 0.00 82 1016.7
20260905034001 60 335 2.0 5.0 0.00 0.00 0.00 82 1016.6
20260905033501 60 358 3.0 5.0 0.00 0.00 0.00 81 1016.5
20260905033000 61 360 2.0 3.0 0.00 0.00 0.00 81 1016.5
20260905032501 61 330 2.0 5.0 0.00 0.00 0.00 81 1016.5